Regional Weather Roundup
Issued by NWS

Home | Current Version | Previous Version | Text Only | Print | Product List | Glossary Off
Versions: 1 2 3 4 5 6 7 8 9 10 11 12 13 14 15 16 17 18 19 20 21 22 23 24 25 26 27 28 29 30 31 32 33 34 35 36 37 38

000
ASUS43 KDMX 220407
RWRIA

WEATHER ROUNDUP FOR IOWA
NATIONAL WEATHER SERVICE DES MOINES IA
1100 PM CDT TUE OCT 21 2014

NOTE: "FAIR" INDICATES FEW OR NO CLOUDS BELOW 12,000 FEET WITH NO
SIGNIFICANT WEATHER AND/OR OBSTRUCTIONS TO VISIBILITY.

* - THESE STATIONS ARE NOT NWS STATIONS...THUS NOT UNDER NWS
QUALITY CONTROL.  THEY ALSO DO NOT REPORT WEATHER SUCH
AS PRECIPITATION OR FOG.

IAZ001>003-012>014-020>022-031>034-043>046-220500-
   NORTHWEST IOWA

CITY           SKY/WX    TMP DP  RH WIND       PRES   REMARKS
CARROLL *      PTCLDY    48  43  81 SE8       30.13S
CHEROKEE *     CLEAR     54  43  66 SE12G18   30.10S
DENISON *      CLEAR     52  45  76 SE10G17   30.09R
LE MARS *      CLEAR     54  45  71 SE10      30.06S
ORANGE CITY *  CLEAR     55  45  67 SE9G17    30.07S
SHELDON *      CLEAR     54  43  66 SE14      30.07S
SIOUX CITY     CLEAR     50  41  71 SE9       30.06S
SPENCER        CLEAR     51  41  68 SE14      30.11R
STORM LAKE *   CLEAR     50  43  76 SE15      30.12R
$$

IAZ055>058-069>071-079>083-090>094-220500-
   SOUTHWEST IOWA

CITY           SKY/WX    TMP DP  RH WIND       PRES   REMARKS
ATLANTIC *     PTCLDY    54  45  71 SE8G16    30.11S
AUDUBON *      CLEAR     48  41  76 SE5       30.13S
CLARINDA *     CLEAR     55  46  71 VRB5      30.13S
COUNCIL BLFS * CLEAR     55  45  67 SE12      30.08R
CRESTON *      CLEAR     50  45  81 SE8       30.14S
HARLAN  *      CLEAR     54  46  76 SE8       30.14R
LAMONI         CLEAR     51  43  74 E6        30.15S
RED OAK *      CLEAR     55  46  71 SE9       30.11R
SHENANDOAH *     N/A     57  46  67 SE12      30.10S
$$

IAZ047>049-059>061-072>074-084-220500-
   CENTRAL IOWA

CITY           SKY/WX    TMP DP  RH WIND       PRES   REMARKS
AMES           CLEAR     48  39  71 SE7       30.17S
ANKENY *       CLEAR     50  41  71 SE12      30.17S
CHARITON *     CLEAR     48  43  81 SE8       30.17S
DES MOINES     CLEAR     53  40  61 SE10      30.17R
GRINNELL*      CLEAR     45  37  76 E8        30.21R
KNOXVILLE *    CLEAR     48  39  71 E7        30.17S
MARSHALLTOWN   CLEAR     42  37  82 E7        30.19R
PELLA *        CLEAR     46  39  76 SE7       30.20S
PERRY *          N/A     46  43  87 SE6       30.16R
$$

IAZ004>006-015-016-023>025-035-036-220500-
   NORTH CENTRAL IOWA

CITY           SKY/WX    TMP DP  RH WIND       PRES   REMARKS
ALGONA *       CLEAR     48  41  76 SE10G18   30.14S
CLARION *      CLEAR     46  41  81 SE12G17   30.16S
ESTHERVILLE    CLEAR     49  40  71 SE14      30.12R
FORT DODGE *   CLEAR     48  37  66 SE9       30.16R
MASON CITY     CLEAR     45  38  76 SE9       30.20S
FOREST CITY *  CLEAR     46  39  76 SE12      30.17S
IOWA FALLS *     N/A     43  37  81 SE6       30.20R
$$

IAZ007>011-017>019-026>030-037>042-050>054-066-220500-
   NORTHEAST IOWA

CITY           SKY/WX    TMP DP  RH WIND       PRES   REMARKS
CEDAR RAPIDS   CLEAR     44  38  79 E10       30.23R
CHARLES CITY * CLEAR     45  37  76 SE12      30.21S
CLINTON *      CLEAR     37  34  87 E6        30.29R WCI  33
DECORAH *      CLEAR     41  37  87 SE8       30.23R
DUBUQUE        CLEAR     39  36  89 NE6       30.26R WCI  35
MONTICELLO *   CLEAR     43  37  81 E8        30.25R
OELWEIN *      CLEAR     43  37  81 SE12      30.24R
WATERLOO       CLEAR     45  37  73 SE13      30.22R
$$

IAZ064-065-067-068-078-220500-
   EAST CENTRAL IOWA

CITY           SKY/WX    TMP DP  RH WIND       PRES   REMARKS
DAVENPORT      CLEAR     40  34  79 E7        30.26R
IOWA CITY      CLEAR     46  39  76 E8        30.25R
MT. PLEASANT * CLEAR     41  37  87 E6        30.23R
MUSCATINE *    CLEAR     46  37  71 E7        30.25R
QUAD CITIES    CLEAR     40  35  83 E6        30.26R
$$

IAZ062-063-075>077-085>089-095>099-220500-
   SOUTHEAST IOWA

CITY           SKY/WX    TMP DP  RH WIND       PRES   REMARKS
BURLINGTON     CLEAR     46  39  76 E7        30.22S
FAIRFIELD *    CLEAR     43  37  81 E8        30.21S
FORT MADISON * CLEAR     48  41  76 E5        30.23R HAZE
KEOKUK *       CLEAR     48  39  71 E13       30.21S
OSKALOOSA *      N/A     46  39  76 E9        30.21R
CENTERVILLE *  CLEAR     46  41  81 E7        30.20R
WASHINGTON *   CLEAR     45  41  87 E7        30.23R
$$

ABBREVIATIONS USED IN REMARKS
   TC - TEMPERATURES IN CELSIUS
  WCI - WIND CHILL INDEX
   HX - HEAT INDEX
  VSB - VISIBILITY
$$




USA.gov is the U.S. government's official web portal to all federal, state and local government web resources and services.